Location: Newark
(38.4486°N, 122.7047°W)
Time: 03:26:09
(UTC+00:00)

Hubble Space Telescope - Visible Passes

Search period start: 19 September 2020 00:00
Search period end: 29 September 2020 00:00
Orbit: 536 x 540 km, 28.5° (Epoch: 18 September)

Date Brightness Start Highest point End Pass type
(mag) Time Alt. Az. Time Alt. Az. Time Alt. Az.
25 Sep 3.3 12:37:11 10° S 12:38:24 11° SSE 12:39:38 10° SE visible
26 Sep 3.1 12:26:27 12° S 12:27:34 13° SSE 12:29:29 10° SE visible
27 Sep 2.9 12:16:25 15° S 12:16:42 15° SSE 12:19:03 10° SE visible
28 Sep 2.9 12:06:23 16° SSE 12:06:23 16° SSE 12:08:29 10° SE visible
